Voltar ao catálogo

IRIDIUM 33 DEB

AtivoPO
NORAD 39778·DEBRIS·🇺🇸 United States

Lançado Sep 14, 1997 de Baikonur Cosmodrome

Loading…

Próximas Passagens (próximas 24 horas)

TLE

AtualizadoSource: Space-Track

Época: Sep 13, 2026, 12:30 UTC

1 39778U 97051AAK 26256.52127101  .00001972  00000-0  44218-3 0  9997
2 39778  86.3726 283.7417 0007752 160.2751 199.8758 14.56133953646893

Acompanhe IRIDIUM 33 DEB em tempo real com AllMySat

Download on the App Store